SKG790 CYOW-KBWI

Flight info

Callsign SKG790
Flight time 1h 1m
Altitude 38000
Route IKLAX Q844 SYR CFB LRP
Aircraft LJ35/M-SGCDK/S

Departure

Time 2026-05-06 15:58
Airport Ottawa Macdonald-Cartier International Airport (CYOW)

Arrival

Time 2026-05-06 16:59
Airport Baltimore/Washington International Thurgood Marshall Airport (KBWI)
Time Latitude Longitude Altitude Speed Heading
2026-05-06 15:55 45.32263 -75.65769 376 ft 0 kts 60°
2026-05-06 15:55 45.32267 -75.65759 376 ft 6 kts 61°
2026-05-06 15:56 45.32276 -75.65681 375 ft 11 kts 140°
2026-05-06 15:56 45.32276 -75.65525 370 ft 25 kts 58°
2026-05-06 15:56 45.32385 -75.65287 370 ft 33 kts 60°
2026-05-06 15:56 45.32512 -75.65009 366 ft 34 kts 56°
2026-05-06 15:57 45.32582 -75.64733 364 ft 31 kts 106°
2026-05-06 15:57 45.32513 -75.64549 363 ft 17 kts 130°
2026-05-06 15:57 45.32425 -75.64692 362 ft 57 kts 237°
2026-05-06 15:57 45.32004 -75.65632 387 ft 163 kts 236°
2026-05-06 15:58 45.31311 -75.67248 1081 ft 220 kts 237°
2026-05-06 15:58 45.30326 -75.69166 2218 ft 254 kts 221°
2026-05-06 15:58 45.28702 -75.70200 3978 ft 268 kts 189°
2026-05-06 15:58 45.26828 -75.69892 5818 ft 277 kts 164°
2026-05-06 15:59 45.24968 -75.69004 7636 ft 278 kts 170°
2026-05-06 15:59 45.23095 -75.68769 9520 ft 268 kts 189°
2026-05-06 15:59 45.21291 -75.69198 11253 ft 262 kts 198°
2026-05-06 15:59 45.19491 -75.69806 12659 ft 269 kts 199°
2026-05-06 16:00 45.17638 -75.70318 14034 ft 277 kts 196°
2026-05-06 16:00 45.15706 -75.70741 15341 ft 281 kts 195°
2026-05-06 16:00 45.13758 -75.71185 16666 ft 285 kts 196°
2026-05-06 16:00 45.11810 -75.71664 17950 ft 288 kts 196°
2026-05-06 16:01 45.09814 -75.72155 19059 ft 294 kts 196°
2026-05-06 16:01 45.08443 -75.72485 19748 ft 298 kts 197°
2026-05-06 16:01 45.06395 -75.72974 20754 ft 304 kts 197°
2026-05-06 16:01 45.04282 -75.73481 21766 ft 310 kts 197°
2026-05-06 16:02 45.02124 -75.74001 22761 ft 316 kts 198°
2026-05-06 16:02 44.99968 -75.74548 23676 ft 319 kts 201°
2026-05-06 16:02 44.97954 -75.75717 24599 ft 309 kts 215°
2026-05-06 16:02 44.96101 -75.77266 25547 ft 308 kts 216°
2026-05-06 16:03 44.94244 -75.78829 26442 ft 310 kts 215°
2026-05-06 16:03 44.92395 -75.80326 27303 ft 311 kts 214°
2026-05-06 16:03 44.90506 -75.81843 28153 ft 312 kts 214°
2026-05-06 16:03 44.88607 -75.83385 28952 ft 314 kts 214°
2026-05-06 16:04 44.86733 -75.84910 29848 ft 311 kts 214°
2026-05-06 16:04 44.84864 -75.86424 30740 ft 306 kts 214°
2026-05-06 16:04 44.83017 -75.87919 31476 ft 304 kts 214°
2026-05-06 16:04 44.81213 -75.89380 32177 ft 302 kts 214°
2026-05-06 16:05 44.79379 -75.90865 32878 ft 300 kts 213°
2026-05-06 16:05 44.77568 -75.92328 33569 ft 298 kts 213°
2026-05-06 16:05 44.75791 -75.93763 34165 ft 297 kts 213°
2026-05-06 16:05 44.73992 -75.95217 34597 ft 300 kts 214°
2026-05-06 16:06 44.72168 -75.96689 35003 ft 302 kts 214°
2026-05-06 16:06 44.70289 -75.98004 35405 ft 310 kts 205°
2026-05-06 16:06 44.68122 -75.98573 35803 ft 323 kts 193°
2026-05-06 16:06 44.65849 -75.98722 36190 ft 328 kts 191°
2026-05-06 16:07 44.63558 -75.98872 36565 ft 329 kts 193°
2026-05-06 16:07 44.61303 -75.99150 36948 ft 329 kts 195°
2026-05-06 16:07 44.59001 -75.99454 37338 ft 332 kts 194°
2026-05-06 16:07 44.56687 -75.99707 37726 ft 335 kts 194°
2026-05-06 16:08 44.54336 -75.99953 37886 ft 343 kts 194°
2026-05-06 16:08 44.51944 -76.00225 37895 ft 353 kts 194°
2026-05-06 16:08 44.49454 -76.00511 37906 ft 364 kts 193°
2026-05-06 16:08 44.46875 -76.00795 37909 ft 374 kts 193°
2026-05-06 16:09 44.41560 -76.01380 37907 ft 392 kts 193°
2026-05-06 16:09 44.36041 -76.01992 37903 ft 407 kts 193°
2026-05-06 16:10 44.30357 -76.02828 37894 ft 410 kts 194°
2026-05-06 16:10 44.24694 -76.03654 37892 ft 410 kts 194°
2026-05-06 16:11 44.19028 -76.04576 37891 ft 411 kts 195°
2026-05-06 16:11 44.13347 -76.05452 37890 ft 411 kts 195°
2026-05-06 16:12 44.07650 -76.06344 37889 ft 410 kts 195°
2026-05-06 16:12 44.01991 -76.07236 37884 ft 411 kts 195°
2026-05-06 16:13 43.96298 -76.08119 37878 ft 412 kts 195°
2026-05-06 16:13 43.90579 -76.09011 37884 ft 412 kts 195°
2026-05-06 16:14 43.84882 -76.09896 37874 ft 413 kts 195°
2026-05-06 16:14 43.79174 -76.10780 37870 ft 414 kts 195°
2026-05-06 16:15 43.73463 -76.11665 37857 ft 414 kts 195°
2026-05-06 16:15 43.67708 -76.12553 37852 ft 414 kts 195°
2026-05-06 16:16 43.61989 -76.13435 37850 ft 414 kts 195°
2026-05-06 16:16 43.56279 -76.14314 37851 ft 415 kts 195°
2026-05-06 16:17 43.50511 -76.15199 37851 ft 415 kts 195°
2026-05-06 16:17 43.44778 -76.16078 37857 ft 415 kts 195°
2026-05-06 16:18 43.39041 -76.16956 37854 ft 416 kts 195°
2026-05-06 16:18 43.33297 -76.17833 37858 ft 416 kts 195°
2026-05-06 16:19 43.27520 -76.18713 37853 ft 417 kts 196°
2026-05-06 16:19 43.21761 -76.19589 37860 ft 417 kts 196°
2026-05-06 16:20 43.15997 -76.20417 37863 ft 423 kts 192°
2026-05-06 16:20 43.10031 -76.20061 37861 ft 433 kts 186°
2026-05-06 16:21 43.04011 -76.19609 37865 ft 432 kts 188°
2026-05-06 16:21 42.97995 -76.19229 37859 ft 435 kts 187°
2026-05-06 16:22 42.91951 -76.18789 37848 ft 434 kts 187°
2026-05-06 16:22 42.85914 -76.18394 37847 ft 434 kts 187°
2026-05-06 16:23 42.79876 -76.17971 37839 ft 435 kts 187°
2026-05-06 16:23 42.73821 -76.17565 37837 ft 437 kts 187°
2026-05-06 16:24 42.67749 -76.17149 37830 ft 437 kts 187°
2026-05-06 16:24 42.61688 -76.16740 37831 ft 438 kts 187°
2026-05-06 16:25 42.55602 -76.16326 37829 ft 438 kts 187°
2026-05-06 16:25 42.49479 -76.15914 37825 ft 439 kts 187°
2026-05-06 16:26 42.43387 -76.15501 37825 ft 440 kts 187°
2026-05-06 16:26 42.37295 -76.15093 37799 ft 440 kts 187°
2026-05-06 16:27 42.31151 -76.14678 37795 ft 440 kts 187°
2026-05-06 16:27 42.25035 -76.14269 37788 ft 440 kts 187°
2026-05-06 16:28 42.18937 -76.13860 37786 ft 441 kts 187°
2026-05-06 16:28 42.12860 -76.13822 37795 ft 432 kts 193°
2026-05-06 16:29 42.06867 -76.14372 37787 ft 434 kts 193°
2026-05-06 16:29 42.00807 -76.14802 37785 ft 435 kts 193°
2026-05-06 16:30 41.95849 -76.15184 37779 ft 430 kts 194°
2026-05-06 16:30 41.88856 -76.15757 37786 ft 434 kts 193°
2026-05-06 16:31 41.82809 -76.16211 37778 ft 436 kts 193°
2026-05-06 16:31 41.76711 -76.16694 37777 ft 438 kts 193°
2026-05-06 16:32 41.70614 -76.17157 37779 ft 438 kts 193°
2026-05-06 16:32 41.64533 -76.17634 37776 ft 439 kts 193°
2026-05-06 16:33 41.58494 -76.18090 37777 ft 434 kts 193°
2026-05-06 16:34 41.49529 -76.18787 37779 ft 427 kts 193°
2026-05-06 16:34 41.43610 -76.19237 37784 ft 425 kts 193°
2026-05-06 16:35 41.37720 -76.19693 37787 ft 426 kts 193°
2026-05-06 16:35 41.31781 -76.20143 37787 ft 426 kts 193°
2026-05-06 16:36 41.25878 -76.20598 37804 ft 426 kts 193°
2026-05-06 16:36 41.19938 -76.21047 37816 ft 427 kts 193°
2026-05-06 16:37 41.14016 -76.21498 37834 ft 427 kts 192°
2026-05-06 16:37 41.08108 -76.21946 37838 ft 427 kts 192°
2026-05-06 16:38 41.02157 -76.22398 37846 ft 427 kts 192°
2026-05-06 16:38 40.96266 -76.22867 37846 ft 424 kts 195°
2026-05-06 16:38 40.93432 -76.23584 37937 ft 403 kts 204°
2026-05-06 16:39 40.90799 -76.24616 37928 ft 383 kts 207°
2026-05-06 16:39 40.88283 -76.25671 37766 ft 388 kts 206°
2026-05-06 16:39 40.85554 -76.26628 36964 ft 422 kts 201°
2026-05-06 16:39 40.82638 -76.27366 36840 ft 415 kts 199°
2026-05-06 16:40 40.79933 -76.28048 35924 ft 399 kts 202°
2026-05-06 16:40 40.77170 -76.28999 34496 ft 415 kts 205°
2026-05-06 16:40 40.74384 -76.29959 33851 ft 413 kts 203°
2026-05-06 16:40 40.71607 -76.30752 33117 ft 411 kts 201°
2026-05-06 16:41 40.68780 -76.31550 32409 ft 416 kts 201°
2026-05-06 16:41 40.65931 -76.32441 31726 ft 423 kts 201°
2026-05-06 16:41 40.63049 -76.33355 31069 ft 429 kts 200°
2026-05-06 16:41 40.60107 -76.34240 30418 ft 434 kts 199°
2026-05-06 16:42 40.57177 -76.35105 29773 ft 437 kts 199°
2026-05-06 16:42 40.54199 -76.36007 29027 ft 438 kts 199°
2026-05-06 16:42 40.51251 -76.36913 28297 ft 438 kts 199°
2026-05-06 16:42 40.48271 -76.37817 27596 ft 438 kts 199°
2026-05-06 16:43 40.45292 -76.38711 26905 ft 437 kts 199°
2026-05-06 16:43 40.42357 -76.39595 26240 ft 437 kts 199°
2026-05-06 16:43 40.39384 -76.40496 25578 ft 435 kts 199°
2026-05-06 16:43 40.36437 -76.41387 24937 ft 434 kts 199°
2026-05-06 16:44 40.33484 -76.42276 24303 ft 433 kts 199°
2026-05-06 16:44 40.30552 -76.43159 23691 ft 438 kts 198°
2026-05-06 16:44 40.27568 -76.44059 23021 ft 442 kts 198°
2026-05-06 16:44 40.24587 -76.44954 22325 ft 444 kts 198°
2026-05-06 16:45 40.21560 -76.45860 21631 ft 445 kts 198°
2026-05-06 16:45 40.18524 -76.46771 20948 ft 446 kts 198°
2026-05-06 16:45 40.15494 -76.47680 20286 ft 446 kts 198°
2026-05-06 16:45 40.12499 -76.48576 19638 ft 446 kts 198°
2026-05-06 16:46 40.09456 -76.49486 18998 ft 445 kts 198°
2026-05-06 16:46 40.06472 -76.50374 18370 ft 430 kts 198°
2026-05-06 16:46 40.03622 -76.51220 17696 ft 416 kts 198°
2026-05-06 16:46 40.00827 -76.52057 16972 ft 405 kts 198°
2026-05-06 16:47 39.98128 -76.52866 16290 ft 397 kts 198°
2026-05-06 16:47 39.95449 -76.53665 15609 ft 391 kts 198°
2026-05-06 16:47 39.92812 -76.54447 15049 ft 383 kts 198°
2026-05-06 16:47 39.90255 -76.55208 14482 ft 377 kts 198°
2026-05-06 16:48 39.87707 -76.55966 13910 ft 372 kts 198°
2026-05-06 16:48 39.85190 -76.56715 13274 ft 368 kts 198°
2026-05-06 16:48 39.82742 -76.57440 12761 ft 361 kts 198°
2026-05-06 16:48 39.80307 -76.58160 12274 ft 353 kts 198°
2026-05-06 16:49 39.77944 -76.58862 11813 ft 347 kts 198°
2026-05-06 16:49 39.75597 -76.59558 11357 ft 342 kts 198°
2026-05-06 16:49 39.73281 -76.60244 10918 ft 339 kts 198°
2026-05-06 16:49 39.71014 -76.60915 10483 ft 336 kts 198°
2026-05-06 16:50 39.68724 -76.61591 10067 ft 334 kts 198°
2026-05-06 16:50 39.67223 -76.62035 9788 ft 332 kts 198°
2026-05-06 16:50 39.64242 -76.62917 9191 ft 329 kts 197°
2026-05-06 16:50 39.62767 -76.63351 8894 ft 329 kts 197°
2026-05-06 16:51 39.60528 -76.64010 8444 ft 328 kts 197°
2026-05-06 16:51 39.58336 -76.64650 8012 ft 310 kts 197°
2026-05-06 16:51 39.56320 -76.65237 7626 ft 284 kts 197°
2026-05-06 16:51 39.54453 -76.65787 7278 ft 265 kts 198°
2026-05-06 16:52 39.52711 -76.66307 6944 ft 249 kts 198°
2026-05-06 16:52 39.51082 -76.66786 6652 ft 235 kts 197°
2026-05-06 16:52 39.49530 -76.67241 6369 ft 223 kts 198°
2026-05-06 16:52 39.48049 -76.67677 6076 ft 215 kts 198°
2026-05-06 16:53 39.46614 -76.68101 5800 ft 213 kts 197°
2026-05-06 16:53 39.45160 -76.68529 5522 ft 214 kts 197°
2026-05-06 16:53 39.43702 -76.68957 5236 ft 215 kts 197°
2026-05-06 16:53 39.42259 -76.69380 4971 ft 216 kts 196°
2026-05-06 16:54 39.40782 -76.69812 4692 ft 218 kts 196°
2026-05-06 16:54 39.39296 -76.70248 4383 ft 219 kts 196°
2026-05-06 16:54 39.37803 -76.70685 4095 ft 219 kts 195°
2026-05-06 16:54 39.36326 -76.71118 3805 ft 220 kts 195°
2026-05-06 16:55 39.34823 -76.71557 3518 ft 220 kts 195°
2026-05-06 16:55 39.33320 -76.71995 3233 ft 221 kts 195°
2026-05-06 16:55 39.31835 -76.72429 2944 ft 221 kts 195°
2026-05-06 16:55 39.30327 -76.72871 2646 ft 222 kts 195°
2026-05-06 16:56 39.28835 -76.73307 2357 ft 221 kts 194°
2026-05-06 16:56 39.27312 -76.73598 2056 ft 223 kts 181°
2026-05-06 16:56 39.25830 -76.73082 1770 ft 219 kts 154°
2026-05-06 16:56 39.24643 -76.71960 1500 ft 207 kts 144°
2026-05-06 16:57 39.23575 -76.70836 1245 ft 187 kts 147°
2026-05-06 16:57 39.22561 -76.69881 1012 ft 173 kts 150°
2026-05-06 16:57 39.21611 -76.69010 809 ft 162 kts 149°
2026-05-06 16:57 39.20762 -76.68225 636 ft 146 kts 149°
2026-05-06 16:58 39.19963 -76.67491 440 ft 135 kts 148°
2026-05-06 16:58 39.19214 -76.66790 273 ft 131 kts 147°
2026-05-06 16:58 39.18494 -76.66119 138 ft 118 kts 152°
2026-05-06 16:58 39.17982 -76.65655 116 ft 62 kts 144°
2026-05-06 16:59 39.17719 -76.65419 112 ft 39 kts 139°
2026-05-06 16:59 39.17659 -76.65275 110 ft 22 kts 50°
2026-05-06 16:59 39.17771 -76.65326 109 ft 21 kts 324°
2026-05-06 16:59 39.17897 -76.65444 109 ft 24 kts 332°
2026-05-06 17:00 39.18035 -76.65574 110 ft 26 kts 322°
2026-05-06 17:00 39.18179 -76.65699 122 ft 23 kts 335°
2026-05-06 17:00 39.18303 -76.65821 127 ft 22 kts 323°
2026-05-06 17:00 39.18412 -76.65804 132 ft 19 kts 53°
2026-05-06 17:01 39.18495 -76.65658 135 ft 21 kts 47°
2026-05-06 17:01 39.18541 -76.65630 136 ft 0 kts 317°